Temp
13 13 13 13 13 13 13 13 13 13 14 14 14 14 14 14 15 15 15 16 16 16 16 16 17 18 18 18 17 17 20 19 17 15 17 12 13 9 9 9 8 8 8 8 7
13 13 13 13 13 13 13 13 13 13 14 13 13 14 14 14 14 14 15 16 16 16 16 16 17 18 17 16 15 19 20 19 16 17 16 12 13 10 10 9 9 8 8 8 8
13 13 13 13 13 13 13 13 13 13 13 13 13 13 14 14 14 15 15 15 15 16 16 16 17 18 16 14 14 14 19 15 13 13 12 12 11 10 12 11 13 11 7 8 8
13 13 13 13 13 13 13 13 13 13 14 13 13 13 13 14 16 15 15 15 15 15 16 16 17 17 17 17 12 16 11 12 10 9 10 11 12 10 11 14 12 10 9 9 8
13 13 13 13 13 12 12 12 13 13 13 13 13 13 13 13 14 15 15 15 15 15 16 16 16 15 17 13 12 14 11 9 8 8 10 9 10 13 10 11 11 10 9 9 8
13 13 13 13 13 13 12 12 12 13 13 13 13 13 13 14 14 14 14 15 15 15 15 16 17 16 11 11 14 10 10 10 9 9 8 11 10 8 12 11 10 10 9 8 8
12 12 13 13 12 12 12 12 12 12 13 13 13 13 13 14 14 14 14 15 15 15 15 15 16 15 11 11 8 10 12 11 10 10 10 10 12 10 12 10 8 8 7 6 7
12 12 12 13 12 12 12 12 12 12 12 12 13 13 13 13 13 13 14 14 14 14 15 15 15 14 10 9 10 13 13 15 12 10 9 10 17 13 10 8 9 8 7 6 6
12 11 11 12 12 12 11 11 11 11 11 12 12 12 12 12 12 13 13 14 13 14 14 14 15 10 10 14 14 12 17 14 14 10 10 11 15 11 6 7 10 9 7 6 6
10 11 11 11 11 11 11 10 10 11 11 11 12 12 11 11 11 12 12 13 13 13 13 14 12 13 12 15 18 17 15 13 14 11 9 11 11 13 8 7 8 10 8 7 6
9 10 10 11 11 11 10 9 9 10 10 11 11 11 10 10 11 11 11 12 12 13 14 10 15 15 16 14 12 14 14 15 12 9 9 12 12 14 14 7 8 9 9 7 7
9 9 9 10 10 10 10 10 12 12 9 9 10 11 10 10 10 10 11 12 12 13 11 13 15 13 11 10 12 13 14 15 12 8 8 11 11 13 14 12 11 11 10 9 7
9 8 8 9 9 9 10 11 12 12 12 8 9 10 10 10 10 10 11 11 12 11 12 15 11 8 10 10 12 12 14 12 13 9 9 9 15 15 15 12 11 10 11 10 9
8 8 7 7 7 9 9 11 12 13 12 10 7 8 9 10 9 9 10 11 9 13 11 13 7 9 10 11 12 12 10 10 10 12 14 10 13 17 18 14 12 10 9 9 8
8 8 7 8 8 8 10 10 11 12 11 8 6 6 7 9 7 7 9 10 11 10 11 12 8 9 10 11 10 10 8 9 9 10 9 10 11 17 12 15 18 15 11 9 8
8 8 8 7 7 9 10 11 11 8 9 5 5 6 7 6 6 6 8 9 7 9 9 7 5 8 9 5 7 6 9 8 8 9 11 9 11 15 17 16 15 14 10 8 7
8 8 8 8 7 8 9 10 7 8 6 4 6 6 8 7 6 7 8 8 10 10 11 8 8 6 6 8 7 8 11 12 10 9 12 6 7 14 15 14 12 13 12 10 9
8 8 7 7 7 6 7 5 7 6 5 3 5 6 9 7 6 6 8 10 9 10 10 12 10 7 7 9 10 9 10 12 12 12 13 5 8 16 14 12 11 10 9 9 9
6 4 6 6 6 4 5 4 7 5 4 5 5 5 6 6 7 7 8 10 11 8 15 12 11 5 5 6 8 8 9 8 4 -2 8 13 14 15 13 12 10 10 9 9 10
6 3 3 4 4 2 3 5 4 5 4 5 8 6 6 4 7 7 7 9 9 8 8 11 8 4 4 5 5 7 8 9 7 10 11 10 9 14 16 16 13 11 10 10 10
4 3 1 1 0 2 4 5 3 5 6 7 7 4 6 4 7 7 8 8 8 6 8 8 10 4 5 6 8 6 6 5 8 8 12 13 14 14 13 13 14 14 10 9 9
4 1 -0 0 1 0 3 2 4 4 4 6 7 6 5 4 5 7 7 7 6 7 6 6 6 6 6 4 3 5 7 7 10 9 6 7 13 11 11 11 10 11 11 11 11
1 -1 -0 0 2 2 1 3 4 4 3 4 6 6 4 4 6 5 7 3 5 6 6 6 6 6 5 5 3 4 6 5 2 4 5 10 13 8 8 8 9 8 11 11 10
1 -0 -1 -1 -1 1 2 2 3 4 4 4 5 4 4 4 3 4 5 2 3 3 6 6 4 7 11 9 5 4 4 6 6 8 8 9 9 13 13 9 10 11 11 11 10
0 0 1 1 0 1 2 2 4 2 3 4 3 6 6 4 4 3 2 1 1 0 1 5 6 3 4 4 4 5 5 5 4 6 8 9 7 8 8 8 7 10 10 11 12
-0 -1 -0 -1 2 1 2 2 4 3 3 2 4 6 5 4 5 3 1 2 4 0 1 1 4 2 5 3 3 3 6 5 5 5 6 7 7 8 8 8 8 6 7 8 10
-1 -1 0 0 2 1 3 2 3 4 4 5 5 3 4 6 5 4 4 3 3 2 2 3 3 4 7 3 5 6 8 5 5 4 5 5 7 9 7 7 8 8 8 9 10
Height
1493 1494 1495 1496 1497 1497 1498 1499 1499 1499 1499 1501 1502 1502 1503 1505 1506 1507 1508 1510 1510 1511 1513 1515 1517 1519 1521 1522 1523 1524 1525 1528 1530 1536 1531 1541 1544 1547 1549 1551 1552 1552 1552 1551 1552
1490 1491 1492 1493 1495 1496 1496 1497 1498 1498 1499 1499 1502 1502 1503 1504 1506 1507 1507 1508 1509 1510 1512 1514 1517 1518 1520 1522 1524 1524 1523 1522 1529 1530 1531 1537 1539 1544 1548 1549 1549 1548 1548 1549 1550
1486 1488 1490 1490 1492 1494 1494 1495 1496 1497 1498 1499 1500 1502 1503 1504 1507 1506 1506 1507 1508 1509 1512 1514 1516 1518 1520 1522 1525 1526 1522 1529 1530 1531 1534 1537 1540 1542 1543 1544 1539 1540 1544 1545 1547
1483 1484 1485 1489 1489 1492 1492 1494 1494 1496 1497 1498 1500 1501 1503 1503 1506 1503 1505 1506 1508 1509 1512 1514 1516 1517 1519 1520 1524 1526 1531 1530 1531 1530 1532 1534 1535 1536 1536 1535 1535 1538 1539 1541 1543
1480 1481 1483 1485 1488 1489 1491 1492 1493 1495 1496 1498 1499 1500 1502 1504 1503 1502 1503 1505 1506 1509 1511 1513 1514 1515 1517 1522 1524 1525 1529 1529 1529 1529 1529 1530 1532 1533 1532 1533 1533 1533 1534 1536 1540
1476 1478 1480 1482 1484 1488 1489 1491 1492 1493 1495 1496 1498 1499 1502 1504 1502 1502 1503 1504 1506 1508 1509 1512 1513 1514 1519 1523 1524 1527 1528 1529 1530 1531 1532 1531 1532 1534 1525 1528 1528 1530 1531 1534 1536
1472 1474 1476 1479 1481 1485 1488 1489 1490 1492 1494 1496 1497 1498 1500 1501 1500 1502 1502 1503 1505 1507 1509 1511 1512 1514 1519 1523 1528 1529 1528 1530 1530 1531 1532 1532 1529 1521 1521 1521 1525 1527 1529 1531 1532
1467 1471 1472 1476 1479 1482 1485 1488 1489 1491 1493 1495 1496 1498 1498 1498 1499 1501 1501 1502 1504 1507 1509 1510 1512 1515 1521 1526 1530 1529 1529 1522 1525 1530 1532 1533 1508 1515 1519 1521 1521 1524 1525 1526 1526
1463 1467 1470 1473 1476 1479 1482 1486 1488 1490 1492 1494 1496 1497 1497 1496 1498 1500 1501 1502 1505 1507 1509 1511 1513 1518 1524 1523 1524 1530 1516 1522 1521 1529 1531 1530 1510 1516 1517 1519 1520 1520 1521 1521 1523
1459 1463 1467 1470 1473 1477 1480 1484 1487 1489 1492 1493 1494 1498 1495 1494 1495 1498 1500 1502 1505 1508 1510 1512 1513 1517 1520 1518 1512 1513 1521 1524 1518 1528 1530 1526 1516 1514 1516 1517 1514 1514 1516 1516 1516
1455 1459 1463 1466 1470 1473 1478 1483 1490 1492 1489 1486 1487 1488 1488 1491 1495 1497 1500 1502 1505 1506 1508 1512 1511 1508 1507 1513 1517 1516 1517 1517 1521 1528 1527 1517 1513 1506 1510 1513 1508 1505 1506 1506 1506
1449 1454 1459 1463 1467 1470 1474 1476 1477 1479 1483 1485 1485 1487 1487 1489 1494 1497 1499 1502 1503 1505 1511 1512 1507 1510 1513 1518 1519 1518 1517 1514 1519 1527 1528 1516 1509 1498 1499 1492 1493 1493 1493 1492 1498
1443 1449 1454 1459 1462 1465 1468 1473 1475 1477 1479 1484 1484 1485 1488 1490 1490 1494 1496 1498 1501 1504 1506 1503 1510 1514 1515 1518 1517 1519 1515 1518 1518 1525 1524 1518 1490 1487 1482 1483 1486 1482 1482 1487 1489
1437 1443 1448 1453 1461 1460 1464 1472 1474 1476 1480 1479 1482 1482 1485 1487 1489 1491 1494 1496 1501 1501 1506 1506 1513 1513 1514 1514 1516 1519 1520 1521 1524 1519 1514 1522 1498 1480 1472 1474 1476 1476 1477 1478 1483
1428 1436 1439 1445 1448 1453 1461 1469 1474 1476 1485 1475 1479 1479 1480 1485 1486 1491 1492 1494 1496 1500 1504 1501 1510 1512 1512 1510 1516 1518 1525 1525 1528 1524 1527 1521 1519 1471 1478 1468 1463 1467 1468 1470 1475
1418 1425 1432 1437 1445 1450 1459 1468 1474 1484 1473 1474 1475 1476 1480 1483 1486 1488 1492 1495 1497 1500 1504 1510 1512 1511 1512 1519 1520 1524 1524 1527 1530 1528 1523 1523 1517 1474 1466 1466 1466 1468 1469 1468 1471
1408 1416 1424 1430 1436 1445 1455 1465 1480 1471 1464 1472 1469 1475 1475 1479 1485 1485 1488 1492 1488 1497 1498 1510 1512 1515 1514 1516 1523 1522 1515 1515 1523 1528 1511 1532 1528 1476 1462 1463 1466 1465 1467 1468 1469
1400 1409 1414 1422 1429 1436 1451 1465 1468 1451 1459 1467 1468 1471 1470 1474 1482 1484 1486 1485 1487 1484 1491 1493 1505 1511 1512 1509 1506 1515 1513 1506 1509 1511 1503 1538 1510 1463 1460 1460 1458 1460 1461 1463 1465
1392 1400 1409 1415 1423 1431 1448 1466 1443 1446 1448 1456 1467 1470 1476 1475 1474 1480 1481 1478 1475 1480 1470 1485 1493 1514 1513 1513 1510 1516 1517 1517 1534 1570 1525 1492 1477 1460 1455 1457 1456 1455 1458 1458 1459
1393 1403 1410 1414 1419 1431 1444 1440 1442 1440 1442 1447 1444 1455 1463 1472 1469 1472 1477 1467 1470 1473 1475 1477 1498 1514 1515 1515 1515 1511 1513 1514 1522 1510 1503 1498 1499 1467 1452 1451 1454 1455 1455 1457 1459
1394 1404 1411 1415 1425 1433 1429 1430 1437 1436 1436 1440 1441 1456 1456 1463 1461 1465 1463 1464 1466 1471 1473 1477 1478 1516 1514 1508 1501 1513 1511 1515 1506 1505 1488 1483 1470 1450 1451 1452 1452 1453 1454 1454 1456
1395 1407 1414 1418 1427 1429 1426 1428 1428 1430 1435 1435 1438 1445 1450 1458 1460 1460 1458 1462 1463 1465 1475 1479 1488 1496 1500 1508 1509 1507 1499 1502 1489 1497 1509 1501 1468 1452 1452 1450 1450 1451 1451 1451 1452
1394 1409 1415 1420 1416 1420 1426 1424 1424 1427 1433 1437 1438 1442 1449 1454 1457 1457 1456 1465 1465 1466 1468 1473 1482 1491 1502 1506 1507 1503 1496 1497 1508 1504 1502 1486 1462 1452 1452 1451 1449 1448 1449 1449 1449
1393 1408 1417 1417 1416 1414 1419 1422 1422 1422 1426 1432 1435 1442 1449 1453 1456 1458 1462 1468 1466 1465 1466 1468 1477 1473 1462 1468 1483 1494 1489 1485 1491 1482 1476 1463 1464 1450 1444 1447 1444 1444 1444 1446 1446
1388 1394 1397 1409 1411 1411 1415 1417 1416 1423 1428 1430 1436 1433 1436 1452 1455 1457 1464 1468 1468 1470 1470 1468 1470 1482 1481 1481 1480 1476 1476 1478 1484 1475 1469 1461 1469 1458 1450 1439 1438 1439 1441 1441 1442
1385 1389 1395 1397 1400 1408 1410 1409 1411 1417 1421 1427 1427 1426 1431 1439 1440 1450 1457 1462 1462 1473 1474 1476 1479 1482 1476 1483 1481 1477 1468 1469 1470 1471 1472 1468 1458 1457 1440 1437 1433 1433 1432 1433 1435
1385 1387 1390 1393 1397 1405 1399 1404 1404 1410 1415 1415 1416 1424 1429 1430 1435 1441 1448 1449 1450 1459 1468 1473 1475 1475 1461 1478 1475 1460 1444 1458 1457 1458 1457 1461 1442 1437 1437 1429 1426 1427 1427 1424 1422
Wind_Speed
14 14 13 11 9 8 7 7 7 8 8 8 8 8 8 8 10 9 8 8 8 10 14 17 16 15 11 7 6 6 3 3 5 8 3 14 15 8 8 7 9 11 5 7 20
15 14 14 12 10 9 7 7 7 7 8 9 8 8 8 8 9 8 7 9 10 11 15 18 18 15 6 4 2 3 4 4 2 5 4 18 19 15 8 11 11 10 15 11 21
16 15 15 13 11 9 8 8 7 8 8 9 9 8 9 10 7 7 8 9 10 12 15 16 17 12 5 4 2 1 2 3 3 4 4 14 15 13 12 11 17 21 19 19 24
18 17 16 14 13 11 10 9 8 9 10 11 10 9 9 11 4 8 9 10 11 13 15 16 15 7 5 6 2 4 2 2 3 6 9 10 11 9 20 9 9 15 19 23 26
20 18 18 16 13 12 10 10 9 9 10 10 11 9 9 6 4 9 10 11 13 14 15 15 15 7 6 6 5 3 6 3 4 8 8 10 12 9 17 19 12 13 20 25 26
22 19 19 18 15 12 11 11 10 9 10 10 10 10 8 6 6 8 9 11 13 15 15 14 10 9 11 4 1 4 5 4 4 5 5 8 6 6 11 19 22 18 21 25 27
23 20 20 18 16 14 12 11 10 9 10 11 10 10 7 6 8 8 10 11 12 13 13 11 11 6 10 7 6 8 3 1 5 5 3 5 9 18 15 16 19 21 21 24 28
25 21 20 20 18 15 13 12 11 11 10 11 10 9 3 9 9 9 10 12 12 12 12 13 10 10 5 13 5 2 1 3 5 8 2 4 10 1 15 16 19 20 22 25 29
24 21 19 20 19 16 14 13 11 11 10 10 10 7 3 9 10 11 11 12 13 13 15 14 9 7 7 5 3 2 4 7 2 9 4 10 8 1 6 14 18 20 23 26 27
22 22 19 19 20 18 16 14 11 10 10 9 6 5 7 8 14 14 14 17 11 17 11 5 5 4 3 6 6 5 5 4 7 4 7 9 22 11 7 13 21 22 24 27 30
27 22 21 19 21 20 20 17 9 5 15 6 7 3 11 12 16 15 19 14 19 8 5 2 4 10 12 8 2 5 4 4 2 2 5 16 20 21 18 18 22 25 28 31 34
32 27 22 21 22 23 24 15 11 4 6 11 7 7 12 15 7 17 21 8 8 5 6 4 10 2 6 7 3 3 2 5 2 3 4 7 17 21 20 31 35 34 35 36 31
36 32 27 23 24 28 30 23 11 8 3 6 9 7 9 14 5 19 21 10 3 8 11 6 2 7 3 6 7 4 6 4 4 2 4 11 13 6 5 20 26 30 36 32 34
40 36 32 28 25 30 31 22 12 10 0 6 7 7 11 9 3 17 18 7 2 9 9 2 5 5 5 5 5 5 3 2 1 3 4 4 8 9 13 13 12 19 23 29 28
43 41 40 37 18 34 26 24 15 9 4 6 5 7 12 6 11 10 13 4 8 8 6 5 9 7 5 3 5 2 3 4 2 0 4 3 5 4 3 10 10 6 15 20 23
47 45 44 41 26 26 23 25 15 4 10 5 4 6 8 2 2 8 5 4 7 5 5 4 1 0 2 4 2 12 5 4 3 1 4 2 4 3 3 3 2 4 7 5 14
49 48 48 43 40 28 31 23 3 7 2 6 6 7 7 6 4 4 8 8 7 7 8 3 2 1 4 7 4 2 5 1 2 2 5 3 4 11 6 8 8 9 4 3 3
49 49 50 48 41 41 40 4 8 4 5 2 5 10 9 7 2 5 9 11 8 2 5 10 5 10 6 2 6 9 3 4 4 4 1 3 7 5 5 5 9 6 10 11 14
50 51 47 41 39 50 40 8 8 5 8 12 5 5 4 4 4 6 9 8 11 13 9 8 4 2 2 1 2 6 6 3 6 1 1 4 7 12 8 11 14 17 8 8 10
45 37 24 34 48 46 14 12 6 4 7 6 7 4 11 9 8 10 12 7 7 13 2 5 4 1 1 1 2 2 6 4 0 4 6 3 6 9 4 1 3 3 15 13 11
30 13 18 39 45 29 6 5 6 9 8 7 4 5 5 9 9 8 8 1 5 5 5 5 3 3 4 9 10 4 4 1 1 3 4 3 5 6 7 3 5 3 2 6 16
20 3 33 44 7 4 3 6 7 6 7 1 3 4 7 9 6 10 11 1 4 15 8 1 4 5 4 1 3 2 4 7 5 6 2 2 6 2 7 5 5 11 8 8 9
16 7 35 25 4 6 1 3 7 5 7 5 3 1 2 6 4 5 6 5 7 5 9 8 3 3 1 1 2 7 8 5 3 2 8 5 4 2 4 7 11 14 11 10 12
9 4 7 11 5 5 5 4 6 3 7 6 5 6 4 3 3 5 4 4 3 4 3 7 3 3 6 3 4 6 10 16 11 6 6 13 5 10 8 8 7 9 14 14 14
5 4 12 9 9 4 7 8 9 6 2 6 3 7 8 4 3 2 3 2 6 7 4 3 2 2 3 4 4 5 6 14 21 21 10 3 14 17 16 19 17 24 23 19 21
3 5 6 2 13 9 6 8 11 5 10 6 8 11 5 9 11 9 8 5 5 1 3 1 5 4 4 2 6 8 14 12 19 17 16 22 22 16 30 25 28 23 27 26 27
8 8 6 8 11 10 9 5 12 9 8 6 15 6 11 16 12 13 9 11 14 10 8 7 6 4 7 1 3 16 15 18 11 9 12 15 20 17 18 24 32 34 33 37 34
Wind_Direction
219 219 218 220 223 214 218 213 209 195 190 193 195 186 178 178 180 180 181 189 179 172 167 163 161 162 155 134 127 135 195 206 193 178 157 162 182 171 197 163 189 198 202 212 189
218 219 218 214 219 218 211 210 205 201 194 181 192 181 173 165 175 190 186 185 174 171 169 166 163 156 137 121 93 207 226 199 175 188 177 179 192 172 178 189 212 212 215 203 190
215 217 221 211 214 215 208 204 203 198 193 185 177 175 171 161 157 194 186 178 171 167 168 169 170 167 107 123 71 88 246 143 165 192 175 178 195 179 198 211 215 213 200 200 192
215 214 212 220 209 211 202 201 199 196 189 183 176 170 176 170 197 180 180 175 169 166 167 172 174 147 136 165 130 153 118 212 170 181 163 177 176 203 208 218 210 211 208 202 197
216 211 213 209 217 208 204 196 198 196 188 187 179 176 170 192 206 174 176 174 171 169 170 176 178 152 151 133 126 131 168 179 200 189 190 167 190 205 224 219 226 205 203 202 200
215 210 211 208 206 215 203 197 196 192 188 182 183 181 187 207 187 181 178 177 174 175 176 179 193 183 111 99 254 125 148 162 197 180 168 199 197 192 235 214 221 218 210 205 203
214 210 208 208 203 206 209 197 193 193 187 188 189 188 192 214 193 183 178 177 181 179 179 182 162 161 123 115 117 130 116 218 202 182 172 214 230 229 221 205 207 214 209 207 207
214 211 206 204 202 199 198 197 194 188 188 184 184 187 212 201 186 181 176 173 173 175 177 153 153 124 78 117 91 150 216 232 160 166 153 204 258 260 211 200 211 211 210 208 209
213 210 209 204 199 197 192 192 190 186 183 179 178 178 205 189 179 176 163 159 154 156 150 143 141 99 124 154 140 179 256 228 265 192 150 214 275 133 205 214 227 220 214 213 211
210 208 207 202 196 193 186 179 178 181 174 170 183 180 212 191 174 166 159 151 138 142 127 138 95 127 148 195 230 193 222 235 250 147 220 233 258 255 240 219 228 227 223 221 218
210 206 204 202 195 190 179 154 152 184 189 205 185 165 154 161 161 167 158 149 141 141 164 74 195 209 203 201 96 134 183 249 224 118 232 242 261 267 254 238 232 228 227 226 226
213 210 205 199 193 190 183 180 190 152 157 209 178 163 159 157 140 170 164 163 159 158 138 149 232 169 125 150 158 172 215 247 242 133 226 290 278 273 252 238 236 234 229 227 224
215 211 205 200 195 192 195 192 180 158 96 194 199 180 170 177 161 176 176 158 151 149 188 193 96 136 135 162 170 194 222 216 281 323 238 304 273 270 269 246 247 243 240 235 227
215 211 205 200 199 198 201 188 178 162 12 190 197 198 181 166 156 174 175 159 121 184 166 219 133 157 155 190 189 220 184 131 102 314 290 350 293 298 281 275 247 250 238 235 229
213 213 208 204 201 193 199 178 168 156 253 104 155 164 164 181 139 180 174 160 154 148 188 169 167 166 177 188 182 125 110 103 85 252 319 181 259 261 287 289 291 294 242 230 222
212 212 210 204 202 191 175 167 152 71 236 149 129 165 149 98 85 124 158 137 119 106 49 84 12 117 87 79 15 141 106 85 82 352 270 128 252 265 239 223 305 10 8 223 214
212 212 213 210 197 170 162 156 81 209 20 178 163 173 176 143 131 159 169 174 168 143 187 127 156 137 155 103 117 210 156 212 221 189 240 129 256 262 244 238 250 282 245 335 198
215 215 208 208 197 169 161 84 201 158 175 146 115 139 184 151 147 146 156 197 226 162 148 176 208 178 168 246 189 187 211 196 228 214 347 134 237 245 235 225 214 246 252 238 245
187 179 193 193 186 156 148 190 207 199 154 145 109 124 190 188 145 160 195 217 208 196 202 178 198 56 55 120 180 164 216 81 103 113 252 245 276 273 276 263 249 232 213 210 208
180 176 180 180 166 155 152 193 212 196 135 177 165 174 175 174 162 183 178 191 202 194 262 168 118 28 75 179 52 233 148 129 337 220 235 221 280 250 265 243 9 209 230 226 222
163 135 175 166 156 156 190 188 196 199 154 165 170 130 156 172 183 187 190 186 211 168 147 147 143 118 149 210 190 154 191 200 210 208 247 243 234 202 236 244 268 258 237 237 226
163 96 157 158 145 210 191 173 187 151 181 106 117 114 163 164 155 206 200 337 138 141 174 117 95 149 182 16 324 253 219 190 210 196 245 326 257 160 231 232 253 272 271 238 231
123 103 160 175 163 193 202 202 193 135 164 158 199 55 126 162 151 195 170 355 154 145 156 177 200 138 157 220 179 219 203 200 90 46 192 199 240 102 252 269 265 253 257 244 234
131 118 172 204 244 154 162 190 162 188 146 155 149 116 128 95 31 161 133 22 43 73 107 130 129 203 237 122 118 191 219 209 203 217 185 222 271 294 286 235 241 247 244 245 244
143 159 169 191 219 171 170 176 177 153 102 169 170 205 158 128 227 215 101 122 33 8 22 148 202 151 256 222 195 219 205 197 209 225 229 244 215 240 259 269 257 272 271 258 250
139 141 168 94 167 169 187 191 197 159 156 203 219 185 169 179 195 174 142 183 171 125 154 318 178 147 246 232 238 260 235 211 213 227 247 257 255 257 264 275 276 270 270 260 257
135 120 149 147 174 183 203 170 197 150 219 193 192 129 183 209 150 139 174 148 152 153 173 168 145 152 242 206 291 273 234 205 207 184 196 222 232 239 250 252 259 273 272 276 279